06-08-2022, 00:00:01,    351,    0.0,   10.7,   0.00,   0.00, 1023.9,   57.9, -999.0
06-08-2022, 00:00:10,    351,    0.0,   10.8,   0.00,   0.00, 1023.8,   57.8, -999.0
06-08-2022, 00:00:21,    351,    0.6,   10.8,   0.00,   0.00, 1024.0,   57.9, -999.0
06-08-2022, 00:00:30,    351,    1.0,   10.9,   0.00,   0.00, 1024.0,   58.2, -999.0
06-08-2022, 00:00:40,    351,    0.9,   10.8,   0.00,   0.00, 1024.0,   58.3, -999.0
06-08-2022, 00:00:51,    350,    0.2,   10.8,   0.00,   0.00, 1024.0,   58.1, -999.0
06-08-2022, 00:01:00,    351,    0.0,   10.6,   0.00,   0.00, 1023.9,   57.9, -999.0
06-08-2022, 00:01:10,    351,    0.0,   10.7,   0.00,   0.00, 1023.9,   58.0, -999.0
06-08-2022, 00:01:20,    351,    0.6,   10.7,   0.00,   0.00, 1024.0,   58.3, -999.0
06-08-2022, 00:01:30,    351,    0.6,   10.8,   0.00,   0.00, 1024.0,   58.4, -999.0
06-08-2022, 00:01:40,    351,    0.2,   10.9,   0.00,   0.00, 1024.0,   58.3, -999.0
06-08-2022, 00:01:50,    351,    0.3,   10.8,   0.00,   0.00, 1023.9,   58.1, -999.0
06-08-2022, 00:02:00,    351,    0.7,   10.9,   0.00,   0.00, 1024.0,   58.4, -999.0
06-08-2022, 00:02:10,    351,    0.8,   10.9,   0.00,   0.00, 1024.0,   58.4, -999.0
06-08-2022, 00:02:20,    351,    0.3,   10.9,   0.00,   0.00, 1024.0,   58.2, -999.0
06-08-2022, 00:02:30,    351,    0.0,   10.8,   0.00,   0.00, 1023.9,   58.1, -999.0
06-08-2022, 00:02:40,    351,    0.5,   10.8,   0.00,   0.00, 1024.0,   58.1, -999.0
06-08-2022, 00:02:50,    351,    0.2,   10.8,   0.00,   0.00, 1023.9,   58.1, -999.0
06-08-2022, 00:03:00,    351,    0.5,   10.9,   0.00,   0.00, 1024.0,   58.3, -999.0
06-08-2022, 00:03:09,    351,    0.8,   10.9,   0.00,   0.00, 1024.0,   58.3, -999.0
06-08-2022, 00:03:20,    351,    0.4,   10.9,   0.00,   0.00, 1024.0,   58.2, -999.0
06-08-2022, 00:03:30,    351,    0.1,   10.8,   0.00,   0.00, 1024.0,   58.0, -999.0
06-08-2022, 00:03:39,    351,    0.1,   10.8,   0.00,   0.00, 1023.9,   58.1, -999.0
06-08-2022, 00:03:49,    351,    0.2,   10.8,   0.00,   0.00, 1024.0,   58.2, -999.0
06-08-2022, 00:04:00,    351,    0.0,   10.8,   0.00,   0.00, 1023.9,   58.1, -999.0
06-08-2022, 00:04:09,    351,    0.0,   10.6,   0.00,   0.00, 1023.9,   58.3, -999.0
06-08-2022, 00:04:19,    351,    0.0,   10.7,   0.00,   0.00, 1023.9,   58.2, -999.0
06-08-2022, 00:04:29,    350,    0.0,   10.8,   0.00,   0.00, 1023.9,   58.2, -999.0
06-08-2022, 00:04:39,    351,    0.0,   10.8,   0.00,   0.00, 1023.9,   58.2, -999.0
06-08-2022, 00:04:49,    351,    0.0,   10.7,   0.00,   0.00, 1023.9,   58.1, -999.0
06-08-2022, 00:04:59,    350,    0.0,   10.7,   0.00,   0.00, 1023.9,   58.2, -999.0
06-08-2022, 00:05:09,    351,    0.0,   10.7,   0.00,   0.00, 1023.9,   58.4, -999.0
06-08-2022, 00:05:19,    351,    0.2,   10.8,   0.00,   0.00, 1024.0,   58.6, -999.0
06-08-2022, 00:05:29,    351,    0.9,   10.8,   0.00,   0.00, 1024.0,   58.7, -999.0
06-08-2022, 00:05:39,    350,    0.1,   10.7,   0.00,   0.00, 1023.9,   58.5, -999.0
06-08-2022, 00:05:49,    351,    0.0,   10.7,   0.00,   0.00, 1023.9,   58.4, -999.0
06-08-2022, 00:05:59,    351,    0.2,   10.7,   0.00,   0.00, 1024.0,   58.6, -999.0
06-08-2022, 00:06:09,    350,    0.5,   10.7,   0.00,   0.00, 1024.0,   58.8, -999.0
06-08-2022, 00:06:18,    350,    0.0,   10.6,   0.00,   0.00, 1023.9,   58.4, -999.0
06-08-2022, 00:06:29,    351,    0.0,   10.7,   0.00,   0.00, 1023.9,   58.5, -999.0
06-08-2022, 00:06:38,    351,    0.6,   10.8,   0.00,   0.00, 1024.0,   59.0, -999.0
06-08-2022, 00:06:48,    350,    0.0,   10.7,   0.00,   0.00, 1023.9,   58.6, -999.0
06-08-2022, 00:06:58,    350,    0.0,   10.7,   0.00,   0.00, 1023.9,   58.5, -999.0
06-08-2022, 00:07:08,    351,    0.1,   10.7,   0.00,   0.00, 1023.9,   58.6, -999.0
06-08-2022, 00:07:18,    351,    0.0,   10.7,   0.00,   0.00, 1023.9,   58.4, -999.0
06-08-2022, 00:07:28,    350,    0.5,   10.8,   0.00,   0.00, 1024.0,   58.7, -999.0
06-08-2022, 00:07:38,    351,    0.0,   10.7,   0.00,   0.00, 1023.9,   58.7, -999.0
06-08-2022, 00:07:48,    351,    0.3,   10.8,   0.00,   0.00, 1024.0,   59.1, -999.0
06-08-2022, 00:07:58,    350,    0.7,   10.8,   0.00,   0.00, 1024.0,   58.9, -999.0
06-08-2022, 00:08:08,    351,    0.1,   10.8,   0.00,   0.00, 1024.0,   58.7, -999.0
06-08-2022, 00:08:18,    351,    0.4,   10.7,   0.00,   0.00, 1024.0,   58.7, -999.0
06-08-2022, 00:08:28,    351,    0.6,   10.8,   0.00,   0.00, 1024.0,   58.9, -999.0
06-08-2022, 00:08:38,    355,    0.0,   10.7,   0.00,   0.00, 1024.0,   58.6, -999.0
06-08-2022, 00:08:48,    350,    0.0,   10.7,   0.00,   0.00, 1023.9,   58.5, -999.0
06-08-2022, 00:08:58,    350,    0.0,   10.7,   0.00,   0.00, 1023.9,   58.5, -999.0
06-08-2022, 00:09:08,    350,    0.0,   10.6,   0.00,   0.00, 1023.9,   58.5, -999.0
06-08-2022, 00:09:17,    350,    0.0,   10.6,   0.00,   0.00, 1023.9,   58.5, -999.0
06-08-2022, 00:09:27,    351,    0.0,   10.5,   0.00,   0.00, 1023.9,   58.6, -999.0
06-08-2022, 00:09:38,    350,    1.1,   10.5,   0.00,   0.00, 1024.1,   59.0, -999.0
06-08-2022, 00:09:47,    350,    0.1,   10.6,   0.00,   0.00, 1023.9,   58.8, -999.0
06-08-2022, 00:09:57,    351,    0.1,   10.7,   0.00,   0.00, 1024.0,   58.8, -999.0
06-08-2022, 00:10:08,    350,    0.0,   10.7,   0.00,   0.00, 1023.9,   58.8, -999.0
06-08-2022, 00:10:17,    350,    0.0,   10.6,   0.00,   0.00, 1023.9,   58.7, -999.0
06-08-2022, 00:10:27,    350,    0.0,   10.6,   0.00,   0.00, 1023.9,   58.7, -999.0
06-08-2022, 00:10:37,    350,    0.0,   10.6,   0.00,   0.00, 1023.9,   58.8, -999.0
06-08-2022, 00:10:47,    350,    0.1,   10.6,   0.00,   0.00, 1024.0,   58.9, -999.0
06-08-2022, 00:10:57,    350,    0.8,   10.7,   0.00,   0.00, 1024.0,   59.1, -999.0
06-08-2022, 00:11:07,    350,    0.2,   10.6,   0.00,   0.00, 1024.0,   59.0, -999.0
06-08-2022, 00:11:17,    350,    0.0,   10.6,   0.00,   0.00, 1023.9,   58.7, -999.0
06-08-2022, 00:11:27,    350,    0.5,   10.6,   0.00,   0.00, 1024.0,   59.2, -999.0
06-08-2022, 00:11:37,    350,    0.0,   10.6,   0.00,   0.00, 1023.9,   58.9, -999.0
06-08-2022, 00:11:47,    350,    0.0,   10.6,   0.00,   0.00, 1023.9,   58.8, -999.0
06-08-2022, 00:11:57,    350,    0.0,   10.6,   0.00,   0.00, 1023.9,   59.0, -999.0
06-08-2022, 00:12:07,    350,    0.0,   10.6,   0.00,   0.00, 1023.9,   59.0, -999.0
06-08-2022, 00:12:17,    350,    0.0,   10.6,   0.00,   0.00, 1023.9,   58.8, -999.0
06-08-2022, 00:12:26,    350,    0.0,   10.6,   0.00,   0.00, 1023.9,   58.8, -999.0
06-08-2022, 00:12:37,    350,    0.0,   10.6,   0.00,   0.00, 1023.9,   58.9, -999.0
06-08-2022, 00:12:47,    351,    0.0,   10.6,   0.00,   0.00, 1023.9,   58.8, -999.0
06-08-2022, 00:12:56,    350,    0.0,   10.6,   0.00,   0.00, 1023.9,   58.9, -999.0
06-08-2022, 00:13:06,    350,    0.0,   10.6,   0.00,   0.00, 1023.9,   59.0, -999.0
06-08-2022, 00:13:16,    350,    0.0,   10.6,   0.00,   0.00, 1023.9,   59.0, -999.0
06-08-2022, 00:13:26,    351,    0.0,   10.6,   0.00,   0.00, 1023.9,   59.1, -999.0
06-08-2022, 00:13:36,    351,    0.4,   10.7,   0.00,   0.00, 1024.0,   59.3, -999.0
06-08-2022, 00:13:46,    351,    0.5,   10.8,   0.00,   0.00, 1024.0,   59.4, -999.0
06-08-2022, 00:13:56,    350,    0.0,   10.7,   0.00,   0.00, 1023.9,   59.1, -999.0
06-08-2022, 00:14:06,    350,    0.0,   10.7,   0.00,   0.00, 1023.9,   59.0, -999.0
06-08-2022, 00:14:16,    350,    0.0,   10.7,   0.00,   0.00, 1024.0,   59.1, -999.0
06-08-2022, 00:14:26,    350,    0.0,   10.7,   0.00,   0.00, 1023.9,   59.1, -999.0
06-08-2022, 00:14:36,    350,    0.3,   10.7,   0.00,   0.00, 1024.0,   59.1, -999.0
06-08-2022, 00:14:46,    351,    0.1,   10.7,   0.00,   0.00, 1024.0,   59.2, -999.0
06-08-2022, 00:14:56,    351,    0.5,   10.7,   0.00,   0.00, 1024.1,   59.3, -999.0
06-08-2022, 00:15:06,    351,    0.4,   10.7,   0.00,   0.00, 1024.0,   59.3, -999.0
06-08-2022, 00:15:16,    350,    0.3,   10.7,   0.00,   0.00, 1024.0,   59.4, -999.0
06-08-2022, 00:15:26,    351,    0.0,   10.7,   0.00,   0.00, 1023.9,   59.0, -999.0
06-08-2022, 00:15:35,    350,    0.3,   10.8,   0.00,   0.00, 1024.0,   59.4, -999.0
06-08-2022, 00:15:46,    350,    0.0,   10.7,   0.00,   0.00, 1023.9,   59.1, -999.0
06-08-2022, 00:15:55,    350,    0.0,   10.7,   0.00,   0.00, 1023.9,   59.0, -999.0
06-08-2022, 00:16:05,    351,    0.0,   10.7,   0.00,   0.00, 1023.9,   58.8, -999.0
06-08-2022, 00:16:15,    350,    0.0,   10.7,   0.00,   0.00, 1023.9,   58.9, -999.0
06-08-2022, 00:16:25,    350,    0.0,   10.7,   0.00,   0.00, 1023.9,   58.9, -999.0
06-08-2022, 00:16:35,    350,    0.0,   10.7,   0.00,   0.00, 1023.9,   58.9, -999.0
06-08-2022, 00:16:45,    350,    0.0,   10.6,   0.00,   0.00, 1023.9,   58.9, -999.0
06-08-2022, 00:16:55,    350,    0.0,   10.6,   0.00,   0.00, 1023.9,   59.0, -999.0
06-08-2022, 00:17:05,    350,    0.0,   10.6,   0.00,   0.00, 1023.9,   59.1, -999.0
06-08-2022, 00:17:15,    350,    0.0,   10.6,   0.00,   0.00, 1023.9,   59.1, -999.0
06-08-2022, 00:17:25,    350,    0.0,   10.6,   0.00,   0.00, 1023.9,   59.1, -999.0
06-08-2022, 00:17:35,    350,    0.0,   10.6,   0.00,   0.00, 1023.9,   59.2, -999.0
06-08-2022, 00:17:45,    350,    0.0,   10.5,   0.00,   0.00, 1023.9,   59.1, -999.0
06-08-2022, 00:17:55,    350,    0.0,   10.5,   0.00,   0.00, 1023.9,   59.1, -999.0
06-08-2022, 00:18:04,    350,    0.0,   10.5,   0.00,   0.00, 1023.9,   59.1, -999.0
06-08-2022, 00:18:15,    350,    0.0,   10.5,   0.00,   0.00, 1023.9,   59.2, -999.0
06-08-2022, 00:18:25,    350,    0.0,   10.5,   0.00,   0.00, 1024.0,   59.4, -999.0
06-08-2022, 00:18:34,    350,    0.0,   10.5,   0.00,   0.00, 1023.9,   59.3, -999.0
06-08-2022, 00:18:44,    350,    0.0,   10.6,   0.00,   0.00, 1023.9,   59.4, -999.0
06-08-2022, 00:18:55,    350,    0.0,   10.6,   0.00,   0.00, 1023.9,   59.3, -999.0
06-08-2022, 00:19:04,    350,    0.0,   10.6,   0.00,   0.00, 1023.9,   59.3, -999.0
06-08-2022, 00:19:14,    350,    0.0,   10.5,   0.00,   0.00, 1023.9,   59.3, -999.0
06-08-2022, 00:19:25,    350,    0.0,   10.6,   0.00,   0.00, 1023.9,   59.3, -999.0
06-08-2022, 00:19:34,    350,    0.0,   10.6,   0.00,   0.00, 1023.9,   59.2, -999.0
06-08-2022, 00:19:44,    350,    0.0,   10.6,   0.00,   0.00, 1023.9,   59.3, -999.0
06-08-2022, 00:19:54,    350,    0.0,   10.4,   0.00,   0.00, 1023.9,   59.4, -999.0
06-08-2022, 00:20:04,    350,    0.0,   10.5,   0.00,   0.00, 1023.9,   59.2, -999.0
06-08-2022, 00:20:14,    350,    0.0,   10.5,   0.00,   0.00, 1023.9,   59.4, -999.0
06-08-2022, 00:20:24,    350,    0.0,   10.4,   0.00,   0.00, 1023.9,   59.4, -999.0
06-08-2022, 00:20:34,    350,    0.0,   10.5,   0.00,   0.00, 1023.9,   59.4, -999.0
06-08-2022, 00:20:44,    350,    0.0,   10.5,   0.00,   0.00, 1023.9,   59.4, -999.0
06-08-2022, 00:20:54,    350,    0.0,   10.5,   0.00,   0.00, 1024.0,   59.4, -999.0
06-08-2022, 00:21:04,    351,    0.0,   10.5,   0.00,   0.00, 1023.9,   59.4, -999.0
06-08-2022, 00:21:13,    350,    0.0,   10.5,   0.00,   0.00, 1023.9,   59.4, -999.0
06-08-2022, 00:21:24,    350,    0.0,   10.5,   0.00,   0.00, 1023.9,   59.4, -999.0
06-08-2022, 00:21:34,    351,    0.0,   10.5,   0.00,   0.00, 1023.9,   59.5, -999.0
06-08-2022, 00:21:43,    351,    0.0,   10.5,   0.00,   0.00, 1023.9,   59.3, -999.0
06-08-2022, 00:21:54,    350,    0.0,   10.5,   0.00,   0.00, 1023.9,   59.4, -999.0
06-08-2022, 00:22:03,    351,    0.0,   10.5,   0.00,   0.00, 1023.9,   59.5, -999.0
06-08-2022, 00:22:13,    350,    0.0,   10.5,   0.00,   0.00, 1023.9,   59.6, -999.0
06-08-2022, 00:22:23,    350,    0.0,   10.5,   0.00,   0.00, 1023.9,   59.5, -999.0
06-08-2022, 00:22:33,    350,    0.0,   10.5,   0.00,   0.00, 1023.9,   59.5, -999.0
06-08-2022, 00:22:43,    350,    0.0,   10.5,   0.00,   0.00, 1023.9,   59.6, -999.0
06-08-2022, 00:22:53,    350,    0.0,   10.5,   0.00,   0.00, 1023.9,   59.6, -999.0
06-08-2022, 00:23:03,    350,    0.0,   10.4,   0.00,   0.00, 1023.9,   59.7, -999.0
06-08-2022, 00:23:13,    350,    0.0,   10.5,   0.00,   0.00, 1023.9,   59.6, -999.0
06-08-2022, 00:23:23,    350,    0.0,   10.4,   0.00,   0.00, 1023.9,   59.6, -999.0
06-08-2022, 00:23:33,    350,    0.0,   10.5,   0.00,   0.00, 1023.9,   59.6, -999.0
06-08-2022, 00:23:43,    350,    0.0,   10.4,   0.00,   0.00, 1023.9,   59.6, -999.0
06-08-2022, 00:23:53,    350,    0.0,   10.4,   0.00,   0.00, 1023.9,   59.7, -999.0
06-08-2022, 00:24:03,    351,    0.0,   10.4,   0.00,   0.00, 1023.9,   59.6, -999.0
06-08-2022, 00:24:13,    350,    0.0,   10.4,   0.00,   0.00, 1023.9,   59.7, -999.0
06-08-2022, 00:24:23,    351,    0.0,   10.4,   0.00,   0.00, 1023.9,   59.7, -999.0
06-08-2022, 00:24:33,    350,    0.0,   10.4,   0.00,   0.00, 1023.9,   59.7, -999.0
06-08-2022, 00:24:42,    350,    0.0,   10.4,   0.00,   0.00, 1023.9,   59.6, -999.0
06-08-2022, 00:24:52,    350,    0.0,   10.3,   0.00,   0.00, 1023.9,   59.8, -999.0
06-08-2022, 00:25:03,    350,    0.0,   10.3,   0.00,   0.00, 1023.9,   59.9, -999.0
06-08-2022, 00:25:12,    350,    0.0,   10.4,   0.00,   0.00, 1023.9,   60.0, -999.0
06-08-2022, 00:25:22,    350,    0.0,   10.4,   0.00,   0.00, 1023.9,   60.0, -999.0
06-08-2022, 00:25:32,    350,    0.0,   10.3,   0.00,   0.00, 1023.9,   59.9, -999.0
06-08-2022, 00:25:42,    350,    0.0,   10.3,   0.00,   0.00, 1023.9,   59.9, -999.0
06-08-2022, 00:25:52,    350,    0.0,   10.3,   0.00,   0.00, 1023.9,   59.9, -999.0
06-08-2022, 00:26:02,    350,    0.0,   10.1,   0.00,   0.00, 1023.9,   60.0, -999.0
06-08-2022, 00:26:12,    351,    0.0,   10.2,   0.00,   0.00, 1023.9,   60.0, -999.0
06-08-2022, 00:26:22,    350,    0.0,   10.3,   0.00,   0.00, 1023.9,   60.0, -999.0
06-08-2022, 00:26:32,    350,    0.0,   10.2,   0.00,   0.00, 1023.9,   60.1, -999.0
06-08-2022, 00:26:42,    350,    0.0,   10.3,   0.00,   0.00, 1023.9,   60.0, -999.0
06-08-2022, 00:26:52,    350,    0.0,   10.3,   0.00,   0.00, 1023.9,   60.1, -999.0
06-08-2022, 00:27:02,    350,    0.0,   10.3,   0.00,   0.00, 1023.9,   60.2, -999.0
06-08-2022, 00:27:12,    350,    0.0,   10.3,   0.00,   0.00, 1023.9,   60.3, -999.0
06-08-2022, 00:27:21,    350,    0.0,   10.2,   0.00,   0.00, 1023.9,   60.3, -999.0
06-08-2022, 00:27:32,    350,    0.8,   10.3,   0.00,   0.00, 1024.0,   60.7, -999.0
06-08-2022, 00:27:42,    350,    0.1,   10.3,   0.00,   0.00, 1023.9,   60.4, -999.0
06-08-2022, 00:27:51,    350,    0.0,   10.2,   0.00,   0.00, 1023.9,   60.3, -999.0
06-08-2022, 00:28:01,    350,    0.2,   10.2,   0.00,   0.00, 1024.0,   60.6, -999.0
06-08-2022, 00:28:12,    350,    0.0,   10.3,   0.00,   0.00, 1023.9,   60.4, -999.0
06-08-2022, 00:28:21,    351,    0.0,   10.3,   0.00,   0.00, 1023.9,   60.4, -999.0
06-08-2022, 00:28:31,    350,    0.0,   10.3,   0.00,   0.00, 1023.9,   60.5, -999.0
06-08-2022, 00:28:41,    350,    0.0,   10.3,   0.00,   0.00, 1023.9,   60.4, -999.0
06-08-2022, 00:28:51,    350,    0.4,   10.3,   0.00,   0.00, 1024.0,   60.6, -999.0
06-08-2022, 00:29:01,    350,    0.0,   10.3,   0.00,   0.00, 1024.0,   60.5, -999.0
06-08-2022, 00:29:11,    350,    0.7,   10.4,   0.00,   0.00, 1024.1,   60.8, -999.0
06-08-2022, 00:29:21,    350,    0.1,   10.4,   0.00,   0.00, 1024.0,   60.6, -999.0
06-08-2022, 00:29:31,    350,    0.1,   10.4,   0.00,   0.00, 1024.0,   60.5, -999.0
06-08-2022, 00:29:41,    350,    0.0,   10.3,   0.00,   0.00, 1023.9,   60.4, -999.0
06-08-2022, 00:29:51,    350,    0.6,   10.4,   0.00,   0.00, 1024.0,   60.6, -999.0
06-08-2022, 00:30:01,    351,    0.8,   10.3,   0.00,   0.00, 1024.1,   60.7, -999.0
06-08-2022, 00:30:11,    350,    0.0,   10.4,   0.00,   0.00, 1023.9,   60.4, -999.0
06-08-2022, 00:30:21,    350,    0.0,   10.3,   0.00,   0.00, 1023.9,   60.4, -999.0
06-08-2022, 00:30:30,    350,    0.0,   10.4,   0.00,   0.00, 1023.9,   60.4, -999.0
06-08-2022, 00:30:41,    350,    0.0,   10.4,   0.00,   0.00, 1023.9,   60.4, -999.0
06-08-2022, 00:30:51,    350,    0.3,   10.4,   0.00,   0.00, 1024.0,   60.6, -999.0
06-08-2022, 00:31:00,    350,    0.5,   10.5,   0.00,   0.00, 1024.0,   60.7, -999.0
06-08-2022, 00:31:10,    350,    0.4,   10.4,   0.00,   0.00, 1024.0,   60.6, -999.0
06-08-2022, 00:31:20,    350,    0.0,   10.4,   0.00,   0.00, 1023.9,   60.3, -999.0
06-08-2022, 00:31:30,    350,    0.0,   10.4,   0.00,   0.00, 1023.9,   60.3, -999.0
06-08-2022, 00:31:40,    350,    0.6,   10.4,   0.00,   0.00, 1024.0,   60.7, -999.0
06-08-2022, 00:31:50,    350,    0.4,   10.4,   0.00,   0.00, 1024.0,   60.7, -999.0
06-08-2022, 00:32:00,    350,    0.6,   10.4,   0.00,   0.00, 1024.0,   60.8, -999.0
06-08-2022, 00:32:10,    350,    0.0,   10.5,   0.00,   0.00, 1023.9,   60.5, -999.0
06-08-2022, 00:32:20,    350,    0.0,   10.4,   0.00,   0.00, 1023.9,   60.4, -999.0
06-08-2022, 00:32:30,    350,    0.1,   10.4,   0.00,   0.00, 1024.0,   60.5, -999.0
06-08-2022, 00:32:40,    350,    0.2,   10.4,   0.00,   0.00, 1024.0,   60.7, -999.0
06-08-2022, 00:32:50,    350,    0.0,   10.4,   0.00,   0.00, 1023.9,   60.4, -999.0
06-08-2022, 00:33:00,    350,    0.1,   10.4,   0.00,   0.00, 1023.9,   60.5, -999.0
06-08-2022, 00:33:10,    350,    0.0,   10.3,   0.00,   0.00, 1023.9,   60.3, -999.0
06-08-2022, 00:33:20,    350,    0.0,   10.4,   0.00,   0.00, 1023.9,   60.4, -999.0
06-08-2022, 00:33:29,    350,    0.0,   10.3,   0.00,   0.00, 1023.9,   60.4, -999.0
06-08-2022, 00:33:40,    350,    0.0,   10.4,   0.00,   0.00, 1023.9,   60.3, -999.0
06-08-2022, 00:33:50,    350,    0.1,   10.3,   0.00,   0.00, 1023.9,   60.6, -999.0
06-08-2022, 00:33:59,    350,    0.4,   10.4,   0.00,   0.00, 1023.9,   60.7, -999.0
06-08-2022, 00:34:09,    350,    0.0,   10.4,   0.00,   0.00, 1023.9,   60.7, -999.0
06-08-2022, 00:34:20,    350,    0.0,   10.4,   0.00,   0.00, 1023.9,   60.8, -999.0
06-08-2022, 00:34:29,    350,    0.0,   10.4,   0.00,   0.00, 1023.9,   60.6, -999.0
06-08-2022, 00:34:39,    350,    0.0,   10.4,   0.00,   0.00, 1023.9,   60.5, -999.0
06-08-2022, 00:34:49,    350,    0.0,   10.5,   0.00,   0.00, 1023.9,   60.6, -999.0
06-08-2022, 00:34:59,    350,    0.0,   10.4,   0.00,   0.00, 1024.0,   60.7, -999.0
06-08-2022, 00:35:09,    350,    0.0,   10.4,   0.00,   0.00, 1023.9,   60.5, -999.0
06-08-2022, 00:35:19,    350,    0.0,   10.5,   0.00,   0.00, 1023.9,   60.6, -999.0
06-08-2022, 00:35:29,    350,    0.0,   10.4,   0.00,   0.00, 1023.9,   60.6, -999.0
06-08-2022, 00:35:39,    350,    0.0,   10.3,   0.00,   0.00, 1023.9,   60.6, -999.0
06-08-2022, 00:35:49,    350,    0.0,   10.3,   0.00,   0.00, 1023.9,   60.6, -999.0
06-08-2022, 00:35:59,    350,    0.0,   10.3,   0.00,   0.00, 1023.9,   60.6, -999.0
06-08-2022, 00:36:09,    350,    0.0,   10.3,   0.00,   0.00, 1023.9,   60.8, -999.0
06-08-2022, 00:36:19,    350,    0.0,   10.3,   0.00,   0.00, 1023.9,   60.8, -999.0
06-08-2022, 00:36:29,    350,    0.0,   10.3,   0.00,   0.00, 1023.9,   60.9, -999.0
06-08-2022, 00:36:38,    350,    0.0,   10.3,   0.00,   0.00, 1023.9,   60.8, -999.0
06-08-2022, 00:36:49,    350,    0.9,   10.4,   0.00,   0.00, 1024.0,   61.1, -999.0
06-08-2022, 00:36:59,    350,    0.7,   10.4,   0.00,   0.00, 1024.0,   61.1, -999.0
06-08-2022, 00:37:08,    350,    0.7,   10.4,   0.00,   0.00, 1024.0,   61.2, -999.0
06-08-2022, 00:37:18,    350,    0.4,   10.4,   0.00,   0.00, 1024.0,   61.1, -999.0
06-08-2022, 00:37:28,    350,    0.0,   10.3,   0.00,   0.00, 1023.9,   60.7, -999.0
06-08-2022, 00:37:38,    350,    0.0,   10.3,   0.00,   0.00, 1023.9,   60.9, -999.0
06-08-2022, 00:37:48,    350,    0.0,   10.3,   0.00,   0.00, 1023.9,   60.9, -999.0
06-08-2022, 00:37:58,    351,    0.2,   10.3,   0.00,   0.00, 1024.0,   61.0, -999.0
06-08-2022, 00:38:08,    350,    0.2,   10.4,   0.00,   0.00, 1024.0,   61.0, -999.0
06-08-2022, 00:38:18,    350,    0.0,   10.2,   0.00,   0.00, 1024.0,   60.9, -999.0
06-08-2022, 00:38:28,    350,    0.4,   10.4,   0.00,   0.00, 1024.0,   61.1, -999.0
06-08-2022, 00:38:38,    351,    0.1,   10.3,   0.00,   0.00, 1024.0,   60.9, -999.0
06-08-2022, 00:38:48,    350,    0.5,   10.3,   0.00,   0.00, 1024.0,   61.1, -999.0
06-08-2022, 00:38:58,    350,    0.8,   10.4,   0.00,   0.00, 1024.1,   61.3, -999.0
06-08-2022, 00:39:08,    350,    0.0,   10.3,   0.00,   0.00, 1024.0,   61.1, -999.0
06-08-2022, 00:39:18,    351,    0.5,   10.3,   0.00,   0.00, 1024.0,   61.3, -999.0
06-08-2022, 00:39:28,    350,    0.2,   10.3,   0.00,   0.00, 1024.0,   61.2, -999.0
06-08-2022, 00:39:38,    350,    0.5,   10.3,   0.00,   0.00, 1024.0,   61.2, -999.0
06-08-2022, 00:39:47,    350,    0.4,   10.3,   0.00,   0.00, 1024.0,   61.3, -999.0
06-08-2022, 00:39:58,    350,    0.7,   10.4,   0.00,   0.00, 1024.1,   61.4, -999.0
06-08-2022, 00:40:07,    350,    0.3,   10.4,   0.00,   0.00, 1024.0,   61.3, -999.0
06-08-2022, 00:40:17,    350,    0.1,   10.4,   0.00,   0.00, 1024.0,   61.1, -999.0
06-08-2022, 00:40:28,    350,    0.0,   10.4,   0.00,   0.00, 1023.9,   61.0, -999.0
06-08-2022, 00:40:37,    350,    0.9,   10.4,   0.00,   0.00, 1024.0,   61.3, -999.0
06-08-2022, 00:40:47,    350,    0.8,   10.4,   0.00,   0.00, 1024.1,   61.3, -999.0
06-08-2022, 00:40:57,    350,    1.2,   10.4,   0.00,   0.00, 1024.0,   61.2, -999.0
06-08-2022, 00:41:07,    350,    0.3,   10.4,   0.00,   0.00, 1024.0,   61.0, -999.0
06-08-2022, 00:41:17,    350,    0.1,   10.3,   0.00,   0.00, 1023.9,   61.0, -999.0
06-08-2022, 00:41:27,    350,    0.0,   10.3,   0.00,   0.00, 1024.0,   61.2, -999.0
06-08-2022, 00:41:37,    350,    0.0,   10.3,   0.00,   0.00, 1024.0,   61.2, -999.0
06-08-2022, 00:41:47,    350,    0.5,   10.4,   0.00,   0.00, 1024.0,   61.2, -999.0
06-08-2022, 00:41:57,    350,    0.6,   10.4,   0.00,   0.00, 1024.0,   61.4, -999.0
06-08-2022, 00:42:07,    350,    0.4,   10.4,   0.00,   0.00, 1024.1,   61.4, -999.0
06-08-2022, 00:42:16,    350,    0.4,   10.4,   0.00,   0.00, 1024.0,   61.2, -999.0
06-08-2022, 00:42:27,    350,    1.5,   10.6,   0.00,   0.00, 1024.1,   61.4, -999.0
06-08-2022, 00:42:37,    350,    0.9,   10.5,   0.00,   0.00, 1024.1,   61.4, -999.0
06-08-2022, 00:42:46,    350,    0.9,   10.6,   0.00,   0.00, 1024.0,   61.2, -999.0
06-08-2022, 00:42:57,    350,    0.4,   10.5,   0.00,   0.00, 1024.0,   61.1, -999.0
06-08-2022, 00:43:07,    350,    0.5,   10.6,   0.00,   0.00, 1024.0,   61.2, -999.0
06-08-2022, 00:43:16,    350,    0.2,   10.5,   0.00,   0.00, 1024.0,   61.0, -999.0
06-08-2022, 00:43:26,    350,    0.0,   10.5,   0.00,   0.00, 1023.9,   60.8, -999.0
06-08-2022, 00:43:36,    350,    0.0,   10.4,   0.00,   0.00, 1023.9,   60.7, -999.0
06-08-2022, 00:43:46,    350,    0.0,   10.4,   0.00,   0.00, 1023.9,   60.7, -999.0
06-08-2022, 00:43:56,    350,    0.0,   10.4,   0.00,   0.00, 1023.9,   60.6, -999.0
06-08-2022, 00:44:06,    350,    0.0,   10.4,   0.00,   0.00, 1023.9,   60.8, -999.0
06-08-2022, 00:44:16,    349,    0.0,   10.4,   0.00,   0.00, 1023.9,   60.7, -999.0
06-08-2022, 00:44:26,    350,    0.0,   10.5,   0.00,   0.00, 1024.0,   60.9, -999.0
06-08-2022, 00:44:36,    350,    0.1,   10.5,   0.00,   0.00, 1024.0,   61.0, -999.0
06-08-2022, 00:44:46,    350,    0.0,   10.4,   0.00,   0.00, 1023.9,   60.8, -999.0
06-08-2022, 00:44:56,    350,    0.0,   10.4,   0.00,   0.00, 1023.9,   60.8, -999.0
06-08-2022, 00:45:06,    350,    0.0,   10.4,   0.00,   0.00, 1023.9,   60.7, -999.0
06-08-2022, 00:45:16,    350,    0.0,   10.3,   0.00,   0.00, 1023.9,   60.8, -999.0
06-08-2022, 00:45:26,    350,    0.0,   10.4,   0.00,   0.00, 1023.9,   60.9, -999.0
06-08-2022, 00:45:36,    350,    0.0,   10.4,   0.00,   0.00, 1023.9,   61.0, -999.0
06-08-2022, 00:45:46,    350,    0.2,   10.4,   0.00,   0.00, 1024.0,   61.2, -999.0
06-08-2022, 00:45:55,    350,    0.0,   10.4,   0.00,   0.00, 1023.9,   61.0, -999.0
06-08-2022, 00:46:06,    350,    0.0,   10.3,   0.00,   0.00, 1024.0,   61.2, -999.0
06-08-2022, 00:46:15,    350,    0.0,   10.4,   0.00,   0.00, 1024.0,   61.1, -999.0
06-08-2022, 00:46:25,    349,    0.0,   10.4,   0.00,   0.00, 1023.9,   61.1, -999.0
06-08-2022, 00:46:35,    350,    0.0,   10.5,   0.00,   0.00, 1023.9,   61.1, -999.0